Location: Avr?me?ti
(46.4667°N, 22.7667°E)
Time: 02:25:22
(UTC+00:00)

Daily predictions for brighter satellites

Satellite Brightness Start Highest point End
(mag) Time Altitude Azimuth Time Altitude Azimuth Time Altitude Azimuth
ADEOS II 4.2 00:01:07 10° NE 00:04:45 19° E 00:08:20 10° SE
Cosmos 494 Rocket 4.1 00:01:53 10° NNW 00:07:02 57° WSW 00:09:18 31° S
Gbstr 26 Del rocket 4.4 00:02:03 10° WNW 00:08:13 70° NNE 00:15:36 10° ESE
Cosmos 1862 4.1 00:07:57 29° W 00:08:44 32° WNW 00:12:06 10° N
SL-19 R/B 4.4 00:05:30 10° NNE 00:11:20 87° ESE 00:14:54 27° SSW
Cosmos 1782 4.5 00:09:19 10° NW 00:11:44 17° W 00:11:51 17° W
Cosmos 2297 Rocket 2.2 00:06:13 10° NNW 00:11:48 61° WSW 00:15:01 25° S
Cosmos 1244 Rocket 4.5 00:10:57 27° S 00:14:35 87° W 00:20:58 10° N
CZ-2D R/B 3.4 00:11:14 10° NNE 00:15:53 31° E 00:19:52 13° SSE
Cosmos 1892 Rocket 4.3 00:18:39 28° WSW 00:20:13 39° WNW 00:24:18 10° N
MOZ.5/SAFIR/RUBIN 5/SL-8 3.8 00:18:08 20° SSE 00:21:18 79° ENE 00:25:59 10° NNW
BREEZE M DEB (TANK) 3.6 00:07:23 10° SW 00:21:22 72° SSE 00:25:14 10° ENE
Cosmos 1980 Rocket 3.1 00:23:29 19° SSE 00:27:04 40° ESE 00:32:16 10° NE
Nadezhda 1 Rocket 4.2 00:22:27 10° N 00:28:45 72° E 00:34:36 11° SSE
Resurs 1-4 Rocket 2.9 00:25:24 10° NNE 00:30:30 46° E 00:34:31 16° SSE
Cosmos 1758 Rocket 3.7 00:28:23 26° S 00:30:47 71° E 00:35:10 10° NNE
Meteor 2-2 Rocket 4.2 00:25:14 10° NNW 00:30:50 67° W 00:34:28 22° S
Cosmos 1602 Rocket 4.2 00:28:11 20° SSE 00:30:55 48° E 00:35:05 10° NNE
Cosmos 1745 Rocket 4.3 00:27:46 17° S 00:32:40 66° E 00:38:59 10° NNE
Cosmos 468 4.5 00:28:58 10° NNW 00:34:20 89° WSW 00:39:36 10° SSE
RESURS DK-1 3.1 00:30:51 10° NW 00:34:22 31° WSW 00:34:57 29° SW
H-2A R/B 3.8 00:34:14 19° W 00:34:29 19° W 00:37:12 10° NW
SeaSat 1 2.5 00:31:57 19° S 00:35:26 60° WSW 00:40:18 10° NW
Cosmos 1697 Rocket 2.7 00:32:50 25° SSW 00:36:13 83° WNW 00:41:56 10° NNE
Cosmos 1626 Rocket 3.5 00:35:07 28° SSW 00:37:19 78° W 00:41:42 10° N
Tiangong -0.5 00:38:11 21° SSE 00:38:11 21° SSE 00:40:26 10° ESE
FENGYUN 3A 3.7 00:37:14 10° NNE 00:42:39 81° ESE 00:46:29 20° S
Cosmos 2227 Rocket 2.1 00:37:40 10° NNW 00:43:21 74° WSW 00:48:59 10° SSE
Cosmos 614 Rocket 4.3 00:38:19 10° NNW 00:43:22 66° ENE 00:48:23 10° SSE
MSX 3.9 00:38:48 10° N 00:44:31 70° WNW 00:48:21 21° SSW
Cosmos 1709 Rocket 4.4 00:41:18 13° S 00:47:02 61° E 00:53:16 10° NNE
BlueWalker 3 2.8 00:45:34 10° NW 00:49:08 49° NNE 00:52:40 10° E
ATLAS 2AS CENTAUR R/B 3.5 00:43:03 10° NW 00:49:43 54° NE 00:56:16 10° ESE
Cosmos-2242 3.7 00:47:27 10° NNW 00:51:16 35° W 00:53:05 24° SW
H-2A R/B 1.9 00:51:19 10° NNE 00:55:29 79° WNW 00:58:12 22° SSW
ISS -3.5 00:53:44 10° WNW 00:57:06 70° NNE 01:00:26 10° ESE
Okean 1 3.0 00:53:33 10° N 00:57:18 81° W 01:00:04 17° S
Okean 1-7 Rocket 3.6 00:57:47 17° S 01:01:09 79° E 01:05:38 10° NNE
NPP 4.0 00:57:05 10° N 01:02:20 53° WNW 01:06:09 18° SW
USA 32 4.3 00:59:07 20° SSW 01:02:38 55° W 01:07:47 10° N
USA 290 3.3 01:02:56 10° NNW 01:06:08 46° ENE 01:09:18 10° SE
ALOS 2.7 01:02:13 10° NNE 01:06:45 59° E 01:10:57 12° S
COSMOS 2441 4.5 01:03:19 10° N 01:08:12 69° WNW 01:11:55 17° SSW
Cosmos 1125 Rocket 3.8 01:06:12 19° SW 01:09:59 60° WNW 01:15:14 10° NNE
DELTA 2 R/B (1) 4.0 01:07:24 15° WSW 01:11:41 42° S 01:16:54 10° ESE
Cosmos 192 4.4 01:07:54 17° SSW 01:11:44 83° ESE 01:16:41 10° NNE
Cosmos 2221 2.4 01:07:45 10° NNW 01:12:02 76° W 01:16:11 10° S
Cosmos 2298 Rocket 4.4 01:07:56 13° S 01:12:33 62° ESE 01:17:48 10° NNE
Cosmos 1743 3.7 01:12:31 10° SSE 01:15:37 36° E 01:18:44 10° NNE
Cosmos 2151 2.9 01:15:36 15° SSW 01:18:57 78° W 01:23:08 10° N
Cosmos 2369 3.9 01:19:12 13° SSW 01:24:19 70° ESE 01:29:57 10° NNE
Meteor 1-19 Rocket 4.3 01:19:19 10° N 01:24:47 82° E 01:30:20 10° SSE
Cosmos 1953 Rocket 4.3 01:20:36 10° S 01:24:51 52° E 01:29:05 10° NNE
Meteor 2-11 Rocket 4.5 01:20:12 12° SSW 01:25:47 72° W 01:31:54 10° N
Molniya-1 3.9 01:24:35 16° SSW 01:27:06 69° ESE 01:34:06 10° NE
IDEFIX/ARIANE 42P 3.8 01:23:53 10° N 01:28:12 27° WNW 01:32:15 11° WSW
USA 234 4.1 01:24:31 10° ENE 01:30:36 40° SE 01:36:39 10° SSW
BREEZE-M DEB 4.0 01:19:39 10° W 01:30:47 70° N 01:34:07 10° E
Cosmos 1812 Rocket 4.2 01:28:12 10° NNW 01:32:15 37° W 01:35:57 12° SSW
Meteor 1-20 Rocket 4.4 01:26:38 10° S 01:32:29 82° E 01:38:19 10° NNE
Cosmos 2082 3.7 01:27:34 10° NNW 01:33:18 89° WSW 01:38:57 10° SSE
Lacrosse 5 rocket 2.8 01:34:44 10° NW 01:38:27 38° NNE 01:42:07 10° E
Meteor 1-28 Rocket 3.8 01:38:18 10° SSE 01:41:34 51° ENE 01:44:50 10° N
Cosmos 2219 3.3 01:36:10 10° NNW 01:41:47 60° WSW 01:47:18 10° S
ADEOS II 2.2 01:39:34 10° N 01:44:46 64° WNW 01:49:55 10° SSW
SL-16 R/B 2.7 01:38:38 10° SSE 01:44:53 87° ENE 01:51:12 10° NNW
SL-16 R/B 3.4 01:40:40 10° S 01:45:51 39° ESE 01:51:05 10° NE
Cosmos 921 Rocket 3.1 01:42:42 10° NNW 01:47:07 62° WSW 01:51:25 10° S
Envisat 3.0 01:42:28 10° N 01:47:32 72° WNW 01:52:33 10° SSW
Cosmos 1707 3.9 01:44:27 10° N 01:47:33 37° ENE 01:50:38 10° SSE
NOAA 11 4.4 01:42:58 10° N 01:48:22 62° WNW 01:53:42 10° SSW
Cosmos 2263 Rocket 2.5 01:43:38 10° NW 01:48:57 44° WSW 01:54:13 10° S
Cosmos 1825 Rocket 3.9 01:45:39 10° SSW 01:49:49 50° WNW 01:54:04 10° N
Cosmos 1238 Rocket 4.1 01:47:45 10° NNW 01:52:39 40° W 01:57:26 10° SSW
Cosmos 1733 3.1 01:51:30 10° S 01:54:27 57° E 01:57:24 10° NNE
METEOR-M 4.3 01:49:10 10° NNE 01:54:32 81° ESE 01:59:52 10° SSW
Gbstr 26 Del rocket 4.4 01:48:36 10° WNW 01:55:07 55° SW 02:02:34 10° SE
CZ-2D R/B 2.9 01:51:05 10° N 01:55:56 38° WNW 02:00:42 10° SW
DMSP B5D2-2 4.2 01:55:23 10° S 02:00:31 55° W 02:05:40 10° NNW
Cosmos 1076 Rocket 3.6 01:58:36 10° SSW 02:02:52 65° W 02:07:08 10° N
KORONAS-FOTON 3.7 02:00:08 10° N 02:03:41 82° E 02:07:12 10° S
Meteor 1-27 Rocket 3.9 01:58:16 10° NNW 02:04:10 71° W 02:10:03 10° S
BREEZE-M DEB (TANK) 3.1 02:03:26 10° W 02:05:10 19° SSW 02:07:26 10° SSE
Cosmos 2074 Rocket 4.2 02:00:13 10° S 02:06:24 81° E 02:12:38 10° N
H-2A R/B 3.7 02:05:29 10° NNE 02:09:23 66° ESE 02:13:14 10° S
Cosmos 2237 4.3 02:03:42 10° SSW 02:09:23 86° ESE 02:15:06 10° NNE
Resurs 1-4 Rocket 3.3 02:05:35 10° N 02:10:02 28° WNW 02:14:29 10° WSW
Cosmos 1980 Rocket 3.1 02:05:58 10° WSW 02:11:05 36° NW 02:16:15 10° NNE
